Test XHTML 1.0 Strict Page for WU-History Testing
Datos historicos para Xert
Diario Historicos para Abril 18, 2025 unidades:  Metrico    Imperiales   Ambos
« Anterior Dia
Proximo Dia »
Diario Semanal Mensual Anual Personalizado
  Max: Min: Promedio:
Temperatura: 19.0 °C 9.0 °C 13.7 °C
Punto de rocio: 12.0 °C 4.0 °C 8.1 °C
Humedad: 88% 52% 70%
Viento: 24km/h 0km/h 8.3km/h
Rafagas: 24km/h - -
Viento- - South
Presion: 1015.2 hPa 1008.1 hPa -
Lluvia: 0.00 mm    
Historical Graphs
 
 
Observa nuestra WebCam, mapa de radar de tormentas para Europa y mapa del radar de nuvosidad

Weather Camera

Radar Tormentas

Radar Sat24

Radar Meteociel





Condiciones meteorologicas Actuales:

Datos tabulados para Abril 18, 2025
Hora Temperatura Punto Rocio Presion Viento Viento Rafagas Humedad Tasa lluvia (1 hora) solar Condiciones
00:00 9.0 °C 4.0 °C 1015.2 hPa Calm   3 km/h 73% 0.00 mm 0.00 W/m2 unknown
00:14 9.0 °C 5.0 °C 1014.9 hPa West 5 km/h 5 km/h 74% 0.00 mm 0.00 W/m2 unknown
00:19 9.0 °C 5.0 °C 1015.2 hPa West 5 km/h 5 km/h 74% 0.00 mm 0.00 W/m2 unknown
00:24 9.0 °C 5.0 °C 1015.2 hPa West 5 km/h 5 km/h 74% 0.00 mm 0.00 W/m2 unknown
00:29 9.0 °C 5.0 °C 1015.2 hPa West 5 km/h 5 km/h 75% 0.00 mm 0.00 W/m2 unknown
00:34 9.0 °C 5.0 °C 1015.2 hPa West 5 km/h 5 km/h 75% 0.00 mm 0.00 W/m2 unknown
00:39 9.0 °C 5.0 °C 1015.2 hPa West 6 km/h 6 km/h 75% 0.00 mm 0.00 W/m2 unknown
00:43 9.0 °C 5.0 °C 1015.2 hPa West 5 km/h 6 km/h 74% 0.00 mm 0.00 W/m2 unknown
00:49 9.0 °C 5.0 °C 1015.2 hPa WNW 2 km/h 6 km/h 75% 0.00 mm 0.00 W/m2 unknown
00:54 9.0 °C 5.0 °C 1015.2 hPa NNW 3 km/h 5 km/h 74% 0.00 mm 0.00 W/m2 unknown
00:59 9.0 °C 5.0 °C 1015.2 hPa NW 3 km/h 3 km/h 73% 0.00 mm 0.00 W/m2 unknown
01:04 9.0 °C 5.0 °C 1015.2 hPa West 3 km/h 5 km/h 73% 0.00 mm 0.00 W/m2 unknown
01:09 9.0 °C 5.0 °C 1015.2 hPa West 6 km/h 6 km/h 72% 0.00 mm 0.00 W/m2 unknown
01:14 9.0 °C 4.0 °C 1015.2 hPa West 6 km/h 6 km/h 73% 0.00 mm 0.00 W/m2 unknown
01:19 9.0 °C 5.0 °C 1015.2 hPa West 6 km/h 6 km/h 74% 0.00 mm 0.00 W/m2 unknown
01:24 9.0 °C 4.0 °C 1015.2 hPa West 5 km/h 6 km/h 74% 0.00 mm 0.00 W/m2 unknown
01:29 9.0 °C 5.0 °C 1015.2 hPa WNW 6 km/h 6 km/h 74% 0.00 mm 0.00 W/m2 unknown
01:34 9.0 °C 5.0 °C 1015.2 hPa West 6 km/h 8 km/h 74% 0.00 mm 0.00 W/m2 unknown
01:39 9.0 °C 5.0 °C 1015.2 hPa West 8 km/h 8 km/h 73% 0.00 mm 0.00 W/m2 unknown
01:44 10.0 °C 5.0 °C 1015.2 hPa West 5 km/h 8 km/h 72% 0.00 mm 0.00 W/m2 unknown
01:49 10.0 °C 5.0 °C 1015.2 hPa West 8 km/h 10 km/h 72% 0.00 mm 0.00 W/m2 unknown
01:54 10.0 °C 5.0 °C 1015.2 hPa West 6 km/h 8 km/h 71% 0.00 mm 0.00 W/m2 unknown
01:58 10.0 °C 5.0 °C 1015.2 hPa West 6 km/h 6 km/h 71% 0.00 mm 0.00 W/m2 unknown
02:04 10.0 °C 5.0 °C 1015.2 hPa West 6 km/h 8 km/h 72% 0.00 mm 0.00 W/m2 unknown
02:09 10.0 °C 5.0 °C 1014.9 hPa West 6 km/h 6 km/h 73% 0.00 mm 0.00 W/m2 unknown
02:14 9.0 °C 5.0 °C 1014.9 hPa West 8 km/h 8 km/h 73% 0.00 mm 0.00 W/m2 unknown
02:19 9.0 °C 5.0 °C 1014.9 hPa West 10 km/h 10 km/h 73% 0.00 mm 0.00 W/m2 unknown
02:23 9.0 °C 5.0 °C 1015.2 hPa West 6 km/h 6 km/h 73% 0.00 mm 0.00 W/m2 unknown
02:29 9.0 °C 5.0 °C 1015.2 hPa West 6 km/h 6 km/h 73% 0.00 mm 0.00 W/m2 unknown
02:34 9.0 °C 5.0 °C 1015.2 hPa WNW 5 km/h 10 km/h 74% 0.00 mm 0.00 W/m2 unknown
02:39 9.0 °C 5.0 °C 1014.9 hPa WNW 6 km/h 6 km/h 74% 0.00 mm 0.00 W/m2 unknown
02:44 9.0 °C 5.0 °C 1014.9 hPa West 6 km/h 6 km/h 74% 0.00 mm 0.00 W/m2 unknown
02:49 9.0 °C 5.0 °C 1014.9 hPa West 5 km/h 6 km/h 74% 0.00 mm 0.00 W/m2 unknown
02:54 10.0 °C 5.0 °C 1014.9 hPa WSW 5 km/h 6 km/h 74% 0.00 mm 0.00 W/m2 unknown
02:59 10.0 °C 5.0 °C 1014.9 hPa NW 3 km/h 5 km/h 73% 0.00 mm 0.00 W/m2 unknown
03:04 10.0 °C 5.0 °C 1014.9 hPa West 3 km/h 6 km/h 73% 0.00 mm 0.00 W/m2 unknown
03:09 10.0 °C 5.0 °C 1014.9 hPa West 6 km/h 6 km/h 73% 0.00 mm 0.00 W/m2 unknown
03:14 10.0 °C 5.0 °C 1014.9 hPa WNW 5 km/h 5 km/h 74% 0.00 mm 0.00 W/m2 unknown
03:19 10.0 °C 5.0 °C 1014.6 hPa WNW 8 km/h 8 km/h 74% 0.00 mm 0.00 W/m2 unknown
03:24 9.0 °C 5.0 °C 1014.6 hPa WNW 8 km/h 8 km/h 74% 0.00 mm 0.00 W/m2 unknown
03:29 10.0 °C 5.0 °C 1014.6 hPa West 8 km/h 8 km/h 74% 0.00 mm 0.00 W/m2 unknown
03:34 10.0 °C 5.0 °C 1014.6 hPa West 10 km/h 10 km/h 73% 0.00 mm 0.00 W/m2 unknown
03:39 10.0 °C 5.0 °C 1014.6 hPa WNW 5 km/h 10 km/h 72% 0.00 mm 0.00 W/m2 unknown
03:44 10.0 °C 5.0 °C 1014.6 hPa West 8 km/h 10 km/h 72% 0.00 mm 0.00 W/m2 unknown
03:49 10.0 °C 5.0 °C 1014.6 hPa West 8 km/h 8 km/h 72% 0.00 mm 0.00 W/m2 unknown
03:54 10.0 °C 5.0 °C 1014.6 hPa West 6 km/h 8 km/h 72% 0.00 mm 0.00 W/m2 unknown
03:59 10.0 °C 5.0 °C 1014.6 hPa WSW 6 km/h 6 km/h 72% 0.00 mm 0.00 W/m2 unknown
04:03 10.0 °C 5.0 °C 1014.6 hPa ENE 2 km/h 8 km/h 73% 0.00 mm 0.00 W/m2 unknown
04:09 10.0 °C 5.0 °C 1014.2 hPa West 6 km/h 6 km/h 73% 0.00 mm 0.00 W/m2 unknown
04:14 10.0 °C 5.0 °C 1014.2 hPa West 8 km/h 8 km/h 73% 0.00 mm 0.00 W/m2 unknown
04:19 10.0 °C 6.0 °C 1014.2 hPa West 8 km/h 8 km/h 73% 0.00 mm 0.00 W/m2 unknown
04:24 10.0 °C 5.0 °C 1014.2 hPa WSW 5 km/h 6 km/h 72% 0.00 mm 0.00 W/m2 unknown
04:28 10.0 °C 5.0 °C 1014.2 hPa SE 3 km/h 6 km/h 72% 0.00 mm 0.00 W/m2 unknown
04:34 10.0 °C 6.0 °C 1014.2 hPa NW 3 km/h 3 km/h 72% 0.00 mm 0.00 W/m2 unknown
04:39 10.0 °C 6.0 °C 1014.2 hPa West 5 km/h 5 km/h 73% 0.00 mm 0.00 W/m2 unknown
04:44 10.0 °C 5.0 °C 1014.2 hPa West 6 km/h 6 km/h 73% 0.00 mm 0.00 W/m2 unknown
04:49 10.0 °C 6.0 °C 1014.2 hPa West 6 km/h 6 km/h 73% 0.00 mm 0.00 W/m2 unknown
04:53 10.0 °C 5.0 °C 1014.2 hPa West 6 km/h 6 km/h 74% 0.00 mm 0.00 W/m2 unknown
04:59 10.0 °C 5.0 °C 1014.2 hPa West 8 km/h 8 km/h 75% 0.00 mm 0.00 W/m2 unknown
05:04 9.0 °C 5.0 °C 1014.2 hPa West 8 km/h 8 km/h 75% 0.00 mm 0.00 W/m2 unknown
05:09 10.0 °C 5.0 °C 1014.2 hPa West 10 km/h 10 km/h 75% 0.00 mm 0.00 W/m2 unknown
05:14 10.0 °C 5.0 °C 1014.2 hPa West 10 km/h 10 km/h 75% 0.00 mm 0.00 W/m2 unknown
05:19 10.0 °C 6.0 °C 1013.9 hPa West 8 km/h 10 km/h 74% 0.00 mm 0.00 W/m2 unknown
05:24 10.0 °C 5.0 °C 1013.9 hPa West 6 km/h 6 km/h 74% 0.00 mm 0.00 W/m2 unknown
05:29 10.0 °C 5.0 °C 1013.9 hPa West 10 km/h 10 km/h 74% 0.00 mm 0.00 W/m2 unknown
05:34 10.0 °C 6.0 °C 1013.9 hPa WNW 8 km/h 10 km/h 74% 0.00 mm 0.00 W/m2 unknown
05:39 10.0 °C 5.0 °C 1013.9 hPa West 10 km/h 10 km/h 74% 0.00 mm 0.00 W/m2 unknown
05:43 9.0 °C 5.0 °C 1013.9 hPa West 6 km/h 6 km/h 75% 0.00 mm 0.00 W/m2 unknown
05:49 9.0 °C 5.0 °C 1013.9 hPa West 10 km/h 10 km/h 76% 0.00 mm 0.00 W/m2 unknown
05:54 10.0 °C 5.0 °C 1013.9 hPa West 8 km/h 8 km/h 75% 0.00 mm 0.00 W/m2 unknown
05:59 10.0 °C 5.0 °C 1013.9 hPa West 8 km/h 8 km/h 74% 0.00 mm 0.00 W/m2 unknown
06:04 11.0 °C 6.0 °C 1013.9 hPa West 6 km/h 10 km/h 73% 0.00 mm 0.00 W/m2 unknown
06:09 11.0 °C 6.0 °C 1013.9 hPa West 6 km/h 6 km/h 71% 0.00 mm 0.00 W/m2 unknown
06:14 11.0 °C 6.0 °C 1013.9 hPa West 10 km/h 10 km/h 70% 0.00 mm 0.00 W/m2 unknown
06:19 11.0 °C 6.0 °C 1013.9 hPa West 8 km/h 10 km/h 69% 0.00 mm 0.00 W/m2 unknown
06:24 11.0 °C 6.0 °C 1013.9 hPa West 10 km/h 10 km/h 68% 0.00 mm 0.00 W/m2 unknown
06:29 11.0 °C 6.0 °C 1013.9 hPa West 8 km/h 10 km/h 69% 0.00 mm 0.00 W/m2 unknown
06:34 11.0 °C 6.0 °C 1013.9 hPa West 6 km/h 10 km/h 71% 0.00 mm 0.00 W/m2 unknown
06:39 11.0 °C 5.0 °C 1013.9 hPa West 5 km/h 6 km/h 71% 0.00 mm 0.00 W/m2 unknown
06:44 10.0 °C 6.0 °C 1013.9 hPa West 5 km/h 6 km/h 72% 0.00 mm 0.00 W/m2 unknown
06:48 10.0 °C 6.0 °C 1013.9 hPa West 6 km/h 6 km/h 72% 0.00 mm 0.00 W/m2 unknown
06:54 10.0 °C 5.0 °C 1013.6 hPa WSW 8 km/h 8 km/h 73% 0.00 mm 0.00 W/m2 unknown
06:59 10.0 °C 5.0 °C 1013.9 hPa West 6 km/h 8 km/h 73% 0.00 mm 0.00 W/m2 unknown
07:04 10.0 °C 6.0 °C 1013.6 hPa WNW 3 km/h 8 km/h 74% 0.00 mm 0.00 W/m2 unknown
07:09 10.0 °C 5.0 °C 1013.9 hPa WNW 2 km/h 5 km/h 74% 0.00 mm 0.00 W/m2 unknown
07:14 10.0 °C 5.0 °C 1013.9 hPa WNW 6 km/h 6 km/h 75% 0.00 mm 0.00 W/m2 unknown
07:19 9.0 °C 5.0 °C 1013.9 hPa WNW 3 km/h 6 km/h 76% 0.00 mm 5.00 W/m2 unknown
07:24 9.0 °C 5.0 °C 1013.9 hPa WNW 5 km/h 5 km/h 76% 0.00 mm 9.00 W/m2 unknown
07:29 9.0 °C 5.0 °C 1013.9 hPa West 6 km/h 6 km/h 77% 0.00 mm 12.00 W/m2 unknown
07:34 9.0 °C 5.0 °C 1013.9 hPa West 3 km/h 6 km/h 77% 0.00 mm 14.00 W/m2 unknown
07:39 9.0 °C 5.0 °C 1013.9 hPa West 5 km/h 5 km/h 78% 0.00 mm 16.00 W/m2 unknown
07:44 9.0 °C 5.0 °C 1013.9 hPa WNW 6 km/h 6 km/h 78% 0.00 mm 21.00 W/m2 unknown
07:48 9.0 °C 5.0 °C 1013.9 hPa WNW 3 km/h 6 km/h 77% 0.00 mm 25.00 W/m2 unknown
07:54 9.0 °C 5.0 °C 1014.2 hPa West 5 km/h 5 km/h 77% 0.00 mm 33.00 W/m2 unknown
07:59 9.0 °C 6.0 °C 1014.2 hPa WNW 2 km/h 5 km/h 77% 0.00 mm 39.00 W/m2 unknown
08:04 10.0 °C 6.0 °C 1014.2 hPa West 3 km/h 5 km/h 77% 0.00 mm 51.00 W/m2 unknown
08:09 10.0 °C 6.0 °C 1014.2 hPa West 5 km/h 5 km/h 76% 0.00 mm 69.00 W/m2 unknown
08:14 10.0 °C 6.0 °C 1014.2 hPa West 3 km/h 3 km/h 76% 0.00 mm 84.00 W/m2 unknown
08:19 10.0 °C 6.0 °C 1014.2 hPa WNW 6 km/h 6 km/h 76% 0.00 mm 104.00 W/m2 unknown
08:23 11.0 °C 6.0 °C 1014.2 hPa WNW 5 km/h 5 km/h 76% 0.00 mm 118.00 W/m2 unknown
08:29 11.0 °C 7.0 °C 1014.2 hPa WNW 5 km/h 5 km/h 74% 0.00 mm 146.00 W/m2 unknown
08:34 12.0 °C 7.0 °C 1014.2 hPa WNW 3 km/h 5 km/h 73% 0.00 mm 163.00 W/m2 unknown
08:39 13.0 °C 7.0 °C 1013.9 hPa NW 3 km/h 3 km/h 72% 0.00 mm 179.00 W/m2 unknown
08:44 13.0 °C 8.0 °C 1013.9 hPa NNW 3 km/h 3 km/h 70% 0.00 mm 206.00 W/m2 unknown
08:49 14.0 °C 8.0 °C 1013.9 hPa WSW 3 km/h 3 km/h 68% 0.00 mm 221.00 W/m2 unknown
08:54 14.0 °C 8.0 °C 1013.9 hPa NNE 8 km/h 8 km/h 67% 0.00 mm 246.00 W/m2 unknown
08:58 14.0 °C 8.0 °C 1013.9 hPa East 13 km/h 13 km/h 65% 0.00 mm 258.00 W/m2 unknown
09:04 14.0 °C 7.0 °C 1013.9 hPa ENE 10 km/h 13 km/h 63% 0.00 mm 265.00 W/m2 unknown
09:09 14.0 °C 7.0 °C 1014.2 hPa East 10 km/h 10 km/h 63% 0.00 mm 295.00 W/m2 unknown
09:14 14.0 °C 7.0 °C 1013.9 hPa East 11 km/h 11 km/h 63% 0.00 mm 299.00 W/m2 unknown
09:19 14.0 °C 7.0 °C 1013.9 hPa East 11 km/h 13 km/h 63% 0.00 mm 322.00 W/m2 unknown
09:24 14.0 °C 7.0 °C 1014.2 hPa East 10 km/h 10 km/h 63% 0.00 mm 327.00 W/m2 unknown
09:29 15.0 °C 7.0 °C 1014.2 hPa NE 8 km/h 10 km/h 62% 0.00 mm 353.00 W/m2 unknown
09:34 15.0 °C 7.0 °C 1014.2 hPa NE 6 km/h 10 km/h 60% 0.00 mm 378.00 W/m2 unknown
09:39 16.0 °C 7.0 °C 1014.2 hPa NE 6 km/h 6 km/h 59% 0.00 mm 387.00 W/m2 unknown
09:44 16.0 °C 8.0 °C 1014.2 hPa ENE 5 km/h 5 km/h 57% 0.00 mm 408.00 W/m2 unknown
09:49 16.0 °C 8.0 °C 1014.2 hPa NE 5 km/h 6 km/h 57% 0.00 mm 420.00 W/m2 unknown
09:54 16.0 °C 8.0 °C 1014.2 hPa ENE 6 km/h 6 km/h 57% 0.00 mm 443.00 W/m2 unknown
09:59 16.0 °C 8.0 °C 1014.2 hPa ENE 5 km/h 6 km/h 57% 0.00 mm 466.00 W/m2 unknown
10:04 16.0 °C 7.0 °C 1014.2 hPa ESE 6 km/h 8 km/h 55% 0.00 mm 483.00 W/m2 unknown
10:09 16.0 °C 7.0 °C 1014.2 hPa East 10 km/h 10 km/h 55% 0.00 mm 496.00 W/m2 unknown
10:14 16.0 °C 7.0 °C 1014.2 hPa ESE 6 km/h 10 km/h 54% 0.00 mm 534.00 W/m2 unknown
10:18 16.0 °C 7.0 °C 1014.2 hPa SE 8 km/h 10 km/h 54% 0.00 mm 564.00 W/m2 unknown
10:24 17.0 °C 7.0 °C 1014.2 hPa East 11 km/h 11 km/h 55% 0.00 mm 568.00 W/m2 unknown
10:29 17.0 °C 7.0 °C 1014.2 hPa East 8 km/h 8 km/h 55% 0.00 mm 519.00 W/m2 unknown
10:34 16.0 °C 7.0 °C 1014.2 hPa ENE 10 km/h 10 km/h 53% 0.00 mm 499.00 W/m2 unknown
10:39 16.0 °C 7.0 °C 1014.2 hPa East 11 km/h 11 km/h 53% 0.00 mm 526.00 W/m2 unknown
10:44 17.0 °C 7.0 °C 1014.2 hPa ENE 10 km/h 11 km/h 54% 0.00 mm 503.00 W/m2 unknown
10:49 17.0 °C 7.0 °C 1014.2 hPa ESE 6 km/h 10 km/h 54% 0.00 mm 635.00 W/m2 unknown
10:53 17.0 °C 7.0 °C 1014.2 hPa East 8 km/h 8 km/h 54% 0.00 mm 543.00 W/m2 unknown
10:59 17.0 °C 8.0 °C 1014.2 hPa NE 6 km/h 8 km/h 55% 0.00 mm 441.00 W/m2 unknown
11:04 17.0 °C 8.0 °C 1014.2 hPa ESE 10 km/h 10 km/h 54% 0.00 mm 599.00 W/m2 unknown
11:08 17.0 °C 8.0 °C 1014.2 hPa ESE 11 km/h 11 km/h 53% 0.00 mm 603.00 W/m2 unknown
11:14 17.0 °C 8.0 °C 1014.2 hPa ENE 13 km/h 13 km/h 54% 0.00 mm 605.00 W/m2 unknown
11:19 17.0 °C 8.0 °C 1014.2 hPa East 10 km/h 14 km/h 54% 0.00 mm 622.00 W/m2 unknown
11:24 18.0 °C 8.0 °C 1014.2 hPa East 11 km/h 11 km/h 54% 0.00 mm 680.00 W/m2 unknown
11:29 18.0 °C 8.0 °C 1014.2 hPa East 11 km/h 11 km/h 54% 0.00 mm 635.00 W/m2 unknown
11:33 18.0 °C 8.0 °C 1014.2 hPa ESE 10 km/h 11 km/h 53% 0.00 mm 708.00 W/m2 unknown
11:39 18.0 °C 8.0 °C 1014.2 hPa ESE 11 km/h 11 km/h 52% 0.00 mm 728.00 W/m2 unknown
11:44 18.0 °C 8.0 °C 1014.2 hPa ESE 8 km/h 11 km/h 54% 0.00 mm 689.00 W/m2 unknown
11:49 18.0 °C 8.0 °C 1014.2 hPa NE 11 km/h 11 km/h 52% 0.00 mm 661.00 W/m2 unknown
11:54 18.0 °C 8.0 °C 1013.9 hPa ENE 14 km/h 14 km/h 53% 0.00 mm 657.00 W/m2 unknown
11:59 18.0 °C 8.0 °C 1013.9 hPa NE 13 km/h 14 km/h 52% 0.00 mm 633.00 W/m2 unknown
12:04 18.0 °C 9.0 °C 1013.9 hPa ENE 8 km/h 14 km/h 55% 0.00 mm 656.00 W/m2 unknown
12:09 18.0 °C 9.0 °C 1013.9 hPa ENE 16 km/h 16 km/h 55% 0.00 mm 742.00 W/m2 unknown
12:14 18.0 °C 9.0 °C 1013.9 hPa East 13 km/h 13 km/h 54% 0.00 mm 742.00 W/m2 unknown
12:19 18.0 °C 9.0 °C 1013.9 hPa East 14 km/h 16 km/h 55% 0.00 mm 712.00 W/m2 unknown
12:24 18.0 °C 9.0 °C 1013.9 hPa ENE 14 km/h 14 km/h 54% 0.00 mm 729.00 W/m2 unknown
12:29 18.0 °C 9.0 °C 1013.9 hPa ESE 13 km/h 14 km/h 54% 0.00 mm 800.00 W/m2 unknown
12:34 18.0 °C 9.0 °C 1013.6 hPa ESE 13 km/h 14 km/h 53% 0.00 mm 809.00 W/m2 unknown
12:39 18.0 °C 9.0 °C 1013.6 hPa East 18 km/h 18 km/h 53% 0.00 mm 775.00 W/m2 unknown
12:44 18.0 °C 9.0 °C 1013.6 hPa ENE 8 km/h 8 km/h 54% 0.00 mm 765.00 W/m2 unknown
12:49 18.0 °C 9.0 °C 1013.6 hPa ESE 16 km/h 18 km/h 54% 0.00 mm 766.00 W/m2 unknown
12:54 18.0 °C 9.0 °C 1013.6 hPa East 14 km/h 16 km/h 55% 0.00 mm 784.00 W/m2 unknown
12:58 18.0 °C 10.0 °C 1013.2 hPa East 19 km/h 19 km/h 57% 0.00 mm 770.00 W/m2 unknown
13:04 19.0 °C 10.0 °C 1013.2 hPa East 14 km/h 19 km/h 57% 0.00 mm 780.00 W/m2 unknown
13:09 19.0 °C 9.0 °C 1013.2 hPa East 18 km/h 18 km/h 55% 0.00 mm 788.00 W/m2 unknown
13:14 19.0 °C 9.0 °C 1012.9 hPa ENE 14 km/h 14 km/h 54% 0.00 mm 754.00 W/m2 unknown
13:19 19.0 °C 10.0 °C 1012.9 hPa East 18 km/h 18 km/h 56% 0.00 mm 789.00 W/m2 unknown
13:24 19.0 °C 9.0 °C 1012.9 hPa NE 10 km/h 10 km/h 53% 0.00 mm 747.00 W/m2 unknown
13:29 19.0 °C 9.0 °C 1012.5 hPa ESE 16 km/h 16 km/h 55% 0.00 mm 814.00 W/m2 unknown
13:34 19.0 °C 9.0 °C 1012.5 hPa East 16 km/h 16 km/h 54% 0.00 mm 803.00 W/m2 unknown
13:39 19.0 °C 10.0 °C 1012.5 hPa East 13 km/h 16 km/h 55% 0.00 mm 898.00 W/m2 unknown
13:44 19.0 °C 10.0 °C 1012.5 hPa East 23 km/h 23 km/h 56% 0.00 mm 816.00 W/m2 unknown
13:49 19.0 °C 10.0 °C 1012.5 hPa East 13 km/h 24 km/h 57% 0.00 mm 765.00 W/m2 unknown
13:54 19.0 °C 10.0 °C 1012.2 hPa East 14 km/h 23 km/h 57% 0.00 mm 840.00 W/m2 unknown
13:59 19.0 °C 10.0 °C 1012.2 hPa East 24 km/h 24 km/h 56% 0.00 mm 823.00 W/m2 unknown
14:04 19.0 °C 10.0 °C 1012.2 hPa East 18 km/h 24 km/h 55% 0.00 mm 812.00 W/m2 unknown
14:09 19.0 °C 10.0 °C 1011.9 hPa East 16 km/h 18 km/h 56% 0.00 mm 821.00 W/m2 unknown
14:13 19.0 °C 10.0 °C 1011.9 hPa East 18 km/h 18 km/h 54% 0.00 mm 821.00 W/m2 unknown
14:19 19.0 °C 10.0 °C 1012.2 hPa East 19 km/h 19 km/h 54% 0.00 mm 889.00 W/m2 unknown
14:24 19.0 °C 9.0 °C 1011.9 hPa ESE 13 km/h 13 km/h 53% 0.00 mm 817.00 W/m2 unknown
14:29 19.0 °C 10.0 °C 1011.9 hPa ENE 14 km/h 14 km/h 57% 0.00 mm 868.00 W/m2 unknown
14:34 19.0 °C 10.0 °C 1011.9 hPa East 19 km/h 19 km/h 57% 0.00 mm 868.00 W/m2 unknown
14:38 19.0 °C 10.0 °C 1011.9 hPa East 11 km/h 19 km/h 55% 0.00 mm 823.00 W/m2 unknown
14:44 19.0 °C 10.0 °C 1011.5 hPa ENE 14 km/h 14 km/h 57% 0.00 mm 758.00 W/m2 unknown
14:49 19.0 °C 10.0 °C 1011.5 hPa East 19 km/h 19 km/h 57% 0.00 mm 777.00 W/m2 unknown
14:54 19.0 °C 10.0 °C 1011.5 hPa East 19 km/h 19 km/h 55% 0.00 mm 810.00 W/m2 unknown
14:59 19.0 °C 10.0 °C 1011.5 hPa East 16 km/h 19 km/h 58% 0.00 mm 810.00 W/m2 unknown
15:04 19.0 °C 10.0 °C 1011.5 hPa ESE 19 km/h 21 km/h 55% 0.00 mm 821.00 W/m2 unknown
15:09 19.0 °C 9.0 °C 1011.5 hPa ESE 16 km/h 19 km/h 54% 0.00 mm 800.00 W/m2 unknown
15:14 19.0 °C 10.0 °C 1011.5 hPa ENE 23 km/h 23 km/h 56% 0.00 mm 796.00 W/m2 unknown
15:19 19.0 °C 10.0 °C 1011.2 hPa ENE 18 km/h 23 km/h 57% 0.00 mm 719.00 W/m2 unknown
15:24 19.0 °C 10.0 °C 1011.2 hPa ESE 18 km/h 18 km/h 56% 0.00 mm 645.00 W/m2 unknown
15:29 19.0 °C 10.0 °C 1011.2 hPa East 21 km/h 21 km/h 55% 0.00 mm 642.00 W/m2 unknown
15:34 19.0 °C 10.0 °C 1011.2 hPa ENE 19 km/h 21 km/h 57% 0.00 mm 631.00 W/m2 unknown
15:39 19.0 °C 10.0 °C 1011.2 hPa ENE 19 km/h 19 km/h 57% 0.00 mm 575.00 W/m2 unknown
15:44 19.0 °C 11.0 °C 1011.2 hPa ENE 19 km/h 19 km/h 60% 0.00 mm 705.00 W/m2 unknown
15:49 19.0 °C 11.0 °C 1011.2 hPa East 21 km/h 21 km/h 60% 0.00 mm 563.00 W/m2 unknown
15:54 19.0 °C 11.0 °C 1010.8 hPa East 14 km/h 14 km/h 60% 0.00 mm 629.00 W/m2 unknown
15:59 19.0 °C 10.0 °C 1010.8 hPa East 16 km/h 16 km/h 59% 0.00 mm 599.00 W/m2 unknown
16:03 19.0 °C 11.0 °C 1010.8 hPa ENE 14 km/h 18 km/h 60% 0.00 mm 563.00 W/m2 unknown
16:09 19.0 °C 11.0 °C 1010.5 hPa ENE 16 km/h 16 km/h 62% 0.00 mm 596.00 W/m2 unknown
16:14 18.0 °C 11.0 °C 1010.5 hPa ENE 16 km/h 16 km/h 62% 0.00 mm 661.00 W/m2 unknown
16:19 18.0 °C 11.0 °C 1010.5 hPa East 18 km/h 19 km/h 63% 0.00 mm 555.00 W/m2 unknown
16:24 18.0 °C 11.0 °C 1010.5 hPa East 18 km/h 18 km/h 63% 0.00 mm 555.00 W/m2 unknown
16:29 18.0 °C 11.0 °C 1010.2 hPa East 14 km/h 14 km/h 63% 0.00 mm 367.00 W/m2 unknown
16:34 18.0 °C 11.0 °C 1010.5 hPa East 16 km/h 18 km/h 64% 0.00 mm 341.00 W/m2 unknown
16:39 18.0 °C 10.0 °C 1010.2 hPa ESE 14 km/h 14 km/h 63% 0.00 mm 346.00 W/m2 unknown
16:44 17.0 °C 10.0 °C 1010.2 hPa ESE 16 km/h 16 km/h 64% 0.00 mm 343.00 W/m2 unknown
16:49 17.0 °C 11.0 °C 1010.2 hPa East 14 km/h 18 km/h 65% 0.00 mm 325.00 W/m2 unknown
16:54 17.0 °C 10.0 °C 1010.2 hPa East 14 km/h 14 km/h 65% 0.00 mm 330.00 W/m2 unknown
16:58 17.0 °C 11.0 °C 1010.2 hPa East 14 km/h 14 km/h 67% 0.00 mm 374.00 W/m2 unknown
17:04 17.0 °C 11.0 °C 1010.2 hPa East 14 km/h 14 km/h 68% 0.00 mm 455.00 W/m2 unknown
17:09 17.0 °C 11.0 °C 1010.2 hPa SE 13 km/h 14 km/h 67% 0.00 mm 371.00 W/m2 unknown
17:14 17.0 °C 11.0 °C 1009.8 hPa East 11 km/h 11 km/h 68% 0.00 mm 323.00 W/m2 unknown
17:19 17.0 °C 11.0 °C 1009.8 hPa East 11 km/h 16 km/h 69% 0.00 mm 281.00 W/m2 unknown
17:24 17.0 °C 11.0 °C 1009.8 hPa ENE 8 km/h 8 km/h 68% 0.00 mm 272.00 W/m2 unknown
17:29 17.0 °C 11.0 °C 1009.8 hPa ESE 11 km/h 11 km/h 69% 0.00 mm 243.00 W/m2 unknown
17:34 17.0 °C 11.0 °C 1009.8 hPa ESE 8 km/h 13 km/h 69% 0.00 mm 250.00 W/m2 unknown
17:38 17.0 °C 11.0 °C 1009.8 hPa ENE 8 km/h 8 km/h 69% 0.00 mm 250.00 W/m2 unknown
17:44 17.0 °C 11.0 °C 1009.8 hPa ESE 8 km/h 8 km/h 70% 0.00 mm 241.00 W/m2 unknown
17:49 17.0 °C 11.0 °C 1009.8 hPa ESE 6 km/h 10 km/h 71% 0.00 mm 227.00 W/m2 unknown
17:54 17.0 °C 11.0 °C 1009.8 hPa ESE 8 km/h 8 km/h 71% 0.00 mm 223.00 W/m2 unknown
17:58 17.0 °C 11.0 °C 1009.8 hPa ESE 8 km/h 8 km/h 71% 0.00 mm 225.00 W/m2 unknown
18:00 16.0 °C 11.0 °C 1009.5 hPa ESE 8 km/h 8 km/h 70% 0.00 mm 214.00 W/m2 unknown
18:09 16.0 °C 11.0 °C 1009.5 hPa ESE 6 km/h 8 km/h 71% 0.00 mm 207.00 W/m2 unknown
18:10 16.0 °C 11.0 °C 1009.5 hPa East 6 km/h 6 km/h 71% 0.00 mm 183.00 W/m2 unknown
18:29 16.0 °C 12.0 °C 1009.5 hPa East 8 km/h 8 km/h 74% 0.00 mm 156.00 W/m2 unknown
18:34 16.0 °C 12.0 °C 1009.5 hPa East 8 km/h 8 km/h 74% 0.00 mm 155.00 W/m2 unknown
18:39 16.0 °C 12.0 °C 1009.5 hPa ENE 5 km/h 8 km/h 75% 0.00 mm 135.00 W/m2 unknown
18:44 16.0 °C 12.0 °C 1009.5 hPa NE 8 km/h 8 km/h 76% 0.00 mm 132.00 W/m2 unknown
18:49 16.0 °C 12.0 °C 1009.5 hPa ENE 10 km/h 10 km/h 77% 0.00 mm 114.00 W/m2 unknown
18:51 16.0 °C 12.0 °C 1009.5 hPa East 6 km/h 8 km/h 77% 0.00 mm 104.00 W/m2 unknown
19:04 16.0 °C 12.0 °C 1009.5 hPa ENE 6 km/h 8 km/h 79% 0.00 mm 90.00 W/m2 unknown
19:09 15.0 °C 12.0 °C 1009.5 hPa East 5 km/h 8 km/h 79% 0.00 mm 86.00 W/m2 unknown
19:14 15.0 °C 12.0 °C 1009.5 hPa NE 6 km/h 6 km/h 81% 0.00 mm 83.00 W/m2 unknown
19:19 15.0 °C 12.0 °C 1009.5 hPa NNE 5 km/h 6 km/h 81% 0.00 mm 77.00 W/m2 unknown
19:24 15.0 °C 12.0 °C 1009.5 hPa ENE 6 km/h 6 km/h 81% 0.00 mm 98.00 W/m2 unknown
19:29 15.0 °C 12.0 °C 1009.5 hPa NE 5 km/h 6 km/h 81% 0.00 mm 137.00 W/m2 unknown
19:33 15.0 °C 12.0 °C 1009.1 hPa NE 5 km/h 6 km/h 81% 0.00 mm 127.00 W/m2 unknown
19:39 15.0 °C 12.0 °C 1009.1 hPa NNE 5 km/h 5 km/h 81% 0.00 mm 77.00 W/m2 unknown
19:44 15.0 °C 12.0 °C 1009.1 hPa NE 5 km/h 5 km/h 81% 0.00 mm 69.00 W/m2 unknown
19:49 15.0 °C 12.0 °C 1009.1 hPa ENE 5 km/h 6 km/h 82% 0.00 mm 62.00 W/m2 unknown
19:54 15.0 °C 12.0 °C 1009.1 hPa ENE 5 km/h 5 km/h 82% 0.00 mm 58.00 W/m2 unknown
19:59 15.0 °C 12.0 °C 1008.8 hPa NE 3 km/h 5 km/h 82% 0.00 mm 54.00 W/m2 unknown
20:04 15.0 °C 12.0 °C 1008.8 hPa ENE 3 km/h 3 km/h 82% 0.00 mm 49.00 W/m2 unknown
20:09 15.0 °C 12.0 °C 1008.8 hPa ENE 3 km/h 3 km/h 83% 0.00 mm 39.00 W/m2 unknown
20:14 15.0 °C 12.0 °C 1008.8 hPa ENE 5 km/h 5 km/h 83% 0.00 mm 40.00 W/m2 unknown
20:19 15.0 °C 12.0 °C 1008.8 hPa ENE 5 km/h 5 km/h 84% 0.00 mm 39.00 W/m2 unknown
20:24 15.0 °C 12.0 °C 1008.8 hPa ENE 5 km/h 5 km/h 84% 0.00 mm 35.00 W/m2 unknown
20:29 15.0 °C 12.0 °C 1008.8 hPa NE 5 km/h 5 km/h 84% 0.00 mm 30.00 W/m2 unknown
20:34 14.0 °C 12.0 °C 1008.8 hPa NE 3 km/h 5 km/h 85% 0.00 mm 21.00 W/m2 unknown
20:39 14.0 °C 12.0 °C 1008.8 hPa NE 2 km/h 3 km/h 85% 0.00 mm 14.00 W/m2 unknown
20:43 14.0 °C 12.0 °C 1008.8 hPa NE 3 km/h 3 km/h 85% 0.00 mm 11.00 W/m2 unknown
20:49 14.0 °C 12.0 °C 1008.8 hPa Calm   3 km/h 85% 0.00 mm 5.00 W/m2 unknown
20:54 14.0 °C 12.0 °C 1008.8 hPa NE 3 km/h 3 km/h 85% 0.00 mm 0.00 W/m2 unknown
20:59 14.0 °C 12.0 °C 1008.8 hPa WNW 3 km/h 3 km/h 85% 0.00 mm 0.00 W/m2 unknown
21:04 14.0 °C 11.0 °C 1008.8 hPa West 5 km/h 5 km/h 85% 0.00 mm 0.00 W/m2 unknown
21:09 14.0 °C 11.0 °C 1008.8 hPa West 3 km/h 5 km/h 85% 0.00 mm 0.00 W/m2 unknown
21:14 13.0 °C 11.0 °C 1008.8 hPa West 3 km/h 3 km/h 86% 0.00 mm 0.00 W/m2 unknown
21:19 13.0 °C 11.0 °C 1008.8 hPa West 3 km/h 3 km/h 86% 0.00 mm 0.00 W/m2 unknown
21:24 13.0 °C 11.0 °C 1008.8 hPa West 5 km/h 5 km/h 86% 0.00 mm 0.00 W/m2 unknown
21:29 13.0 °C 11.0 °C 1008.8 hPa West 5 km/h 5 km/h 86% 0.00 mm 0.00 W/m2 unknown
21:34 13.0 °C 11.0 °C 1008.8 hPa West 3 km/h 6 km/h 86% 0.00 mm 0.00 W/m2 unknown
21:39 13.0 °C 11.0 °C 1008.8 hPa West 3 km/h 3 km/h 86% 0.00 mm 0.00 W/m2 unknown
21:44 13.0 °C 10.0 °C 1008.8 hPa West 3 km/h 3 km/h 86% 0.00 mm 0.00 W/m2 unknown
21:48 13.0 °C 10.0 °C 1008.8 hPa West 5 km/h 5 km/h 86% 0.00 mm 0.00 W/m2 unknown
21:54 12.0 °C 10.0 °C 1008.8 hPa West 5 km/h 5 km/h 86% 0.00 mm 0.00 W/m2 unknown
21:59 12.0 °C 10.0 °C 1008.8 hPa West 6 km/h 6 km/h 87% 0.00 mm 0.00 W/m2 unknown
22:04 12.0 °C 10.0 °C 1008.8 hPa West 6 km/h 6 km/h 87% 0.00 mm 0.00 W/m2 unknown
22:09 12.0 °C 10.0 °C 1008.8 hPa West 5 km/h 6 km/h 88% 0.00 mm 0.00 W/m2 unknown
22:14 12.0 °C 10.0 °C 1008.8 hPa West 6 km/h 6 km/h 88% 0.00 mm 0.00 W/m2 unknown
22:19 12.0 °C 10.0 °C 1008.8 hPa West 8 km/h 8 km/h 88% 0.00 mm 0.00 W/m2 unknown
22:24 12.0 °C 10.0 °C 1008.8 hPa West 8 km/h 8 km/h 88% 0.00 mm 0.00 W/m2 unknown
22:28 12.0 °C 10.0 °C 1008.8 hPa West 10 km/h 10 km/h 88% 0.00 mm 0.00 W/m2 unknown
22:34 12.0 °C 10.0 °C 1008.8 hPa West 8 km/h 10 km/h 88% 0.00 mm 0.00 W/m2 unknown
22:39 12.0 °C 10.0 °C 1008.5 hPa West 8 km/h 8 km/h 88% 0.00 mm 0.00 W/m2 unknown
22:44 12.0 °C 10.0 °C 1008.5 hPa West 3 km/h 6 km/h 88% 0.00 mm 0.00 W/m2 unknown
22:49 12.0 °C 10.0 °C 1008.5 hPa West 3 km/h 8 km/h 87% 0.00 mm 0.00 W/m2 unknown
22:54 12.0 °C 9.0 °C 1008.5 hPa West 3 km/h 3 km/h 87% 0.00 mm 0.00 W/m2 unknown
22:59 11.0 °C 9.0 °C 1008.5 hPa West 3 km/h 3 km/h 87% 0.00 mm 0.00 W/m2 unknown
23:04 11.0 °C 9.0 °C 1008.5 hPa West 3 km/h 3 km/h 88% 0.00 mm 0.00 W/m2 unknown
23:08 11.0 °C 9.0 °C 1008.5 hPa WNW 5 km/h 5 km/h 88% 0.00 mm 0.00 W/m2 unknown
23:14 11.0 °C 9.0 °C 1008.5 hPa West 5 km/h 5 km/h 88% 0.00 mm 0.00 W/m2 unknown
23:17 11.0 °C 9.0 °C 1008.1 hPa West 2 km/h 6 km/h 88% 0.00 mm 0.00 W/m2 unknown
23:24 11.0 °C 9.0 °C 1008.1 hPa West 3 km/h 3 km/h 88% 0.00 mm 0.00 W/m2 unknown
23:29 11.0 °C 9.0 °C 1008.1 hPa West 3 km/h 3 km/h 87% 0.00 mm 0.00 W/m2 unknown
23:33 11.0 °C 9.0 °C 1008.1 hPa West 5 km/h 5 km/h 87% 0.00 mm 0.00 W/m2 unknown
23:39 11.0 °C 9.0 °C 1008.1 hPa West 2 km/h 5 km/h 86% 0.00 mm 0.00 W/m2 unknown
23:44 11.0 °C 9.0 °C 1008.1 hPa West 3 km/h 3 km/h 86% 0.00 mm 0.00 W/m2 unknown
23:49 11.0 °C 8.0 °C 1008.1 hPa West 2 km/h 3 km/h 85% 0.00 mm 0.00 W/m2 unknown
Datos historicos para Xert